Find Starlink 32301

NORAD ID: 61664 Int'l Des: 2024-193 Owner: SPXS Country: US Constellation: starlink operational
LEOCIRCULAR

实时位置

正在加载3D地球...

关于 Starlink 32301

正在加载描述...

即将过境

Passes for default location (London). Set your location on the main map for personalized predictions.

高度历史

Loading altitude history...

两行轨道根数

1 61664U 24193D 26124.20714030 .00002627 00000-0 96377-4 0 9997
2 61664 53.1604 193.3435 0001090 55.8527 304.2577 15.31707578 85021
Epoch: May 4, 2026 • Age: 6 hours

当前状态

高度 473.1 km
速度 7.63 km/s
星下点 37.91°N, 166.59°W
发射日期 Oct 26, 2024
运行时间 1.5 years
类型 internet

技术详情

分类 Payload
质量 730.00 kg
干质量 700.00 kg
总质量 730.00 kg
长度 0.30 m
直径 4.10 m
跨度 29.00 m
形状 Box + pan
制造商 SPXS
平台类型 Starlink V2M
阶段状态 In Orbit
所有者/国家 SPXS/US

Most Searched